029  
ASUS45 KBOI 230010  
RWRID  
 
IDAHO REGIONAL WEATHER ROUNDUP  
NATIONAL WEATHER SERVICE BOISE ID  
500 PM MST WED JAN 22 2020  
 
NOTE: "FAIR" INDICATES FEW OR NO CLOUDS BELOW 12000 FEET  
WITH NO SIGNIFICANT WEATHER AND/OR S TO VISIBILITY
 
 
IDZ012-014-230100-  
SOUTHWEST IDAHO  
 
 
CITY SKY/WX TMP DP RH WIND PRES REMARKS
 
BOISE CLOUDY 45 29 53 CALM 30.19R  
CALDWELL CLOUDY 36 34 92 W8 30.21S FOG WCI 30  
MOUNTAIN HOME CLOUDY 44 31 61 VRB3 30.19R  

 
 
IDZ016-017-230100-  
SOUTHCENTRAL IDAHO  
 
 
CITY SKY/WX TMP DP RH WIND PRES REMARKS
 
BURLEY CLOUDY 38 26 62 CALM 30.18R  
JEROME CLOUDY 38 31 76 CALM 30.20R  
TWIN FALLS CLOUDY 38 28 67 NW3 30.19R  

 
 
IDZ019>023-230100-  
SOUTHEAST IDAHO  
 
 
CITY SKY/WX TMP DP RH WIND PRES REMARKS
 
IDAHO FALLS MOCLDY 31 25 78 SW10 30.16R WCI 22  
POCATELLO MOCLDY 34 26 72 SW13 30.18R WCI 25  
REXBURG MOCLDY 29 24 82 SW6 30.15R WCI 23  

 
 
IDZ006-010-011-018-031-032-230100-  
CENTRAL IDAHO MOUNTAINS  
 
 
CITY SKY/WX TMP DP RH WIND PRES REMARKS
 
MCCALL CLOUDY 28 24 85 CALM 30.11R  
HAILEY PTCLDY 27 19 74 CALM 30.16R  
STANLEY N/A 25 14 63 CALM 30.13R  
SALMON CLOUDY 29 21 72 CALM 30.16R  
CHALLIS CLOUDY 28 16 60 CALM 30.13R  

 
 
IDZ002-004-006-007-026-230100-  
NORTHERN IDAHO  
 
 
CITY SKY/WX TMP DP RH WIND PRES REMARKS
 
LEWISTON CLOUDY 45 33 63 S5 30.12S  
LOWELL N/A 37 35 92 CALM 30.17S  
COEUR D'ALENE MIX PCPN 36 32 85 S5 30.11R WCI 32  
MULLAN PASS FOG 26 22 84 VRB6 30.00S VSB 3/4 WCI 19  

 
 
 
CLICK HERE TO GO TO PREVIOUS BULLETINS.

The Nexlab ID Page Main Text Page